"Pseudo-MPEC" for A10ckQ4

Created 2019 Mar 21 19:18:03 UT using Find_Orb

Click here for an explanation of pseudo-MPECs

 
 Astrometry: 
     A10ckQ4  C2019 03 05N,e!@cRo7l\DTNgAstrometry(we^p^-EW[hhP[Yi0?Te_q=.cdjT08
     A10ckQ4  C2019 03 05:_@Rl?/M.wXC0G-OVMhMjwj.AR'n(dtA+L3J\:23r0Dt=M*j15mwT08
     A10ckQ4  C2019 03 05!/[`[Heqcw+5a)cY0m#%ls[j5y#=2xaHGsdWXS?a=xLd!RiHL$8BT08
     A10ckQ4  C2019 03 05)06+1%Ot](9yEkKdF#Sn)X`KKUFvfBZP2e;ODj#\sp[ra`\a=j0GT08
     A10ckQ4  C2019 03 05$FI^P[#ldH6g*/]?\x%:BbJCdNJF.wJ.b^[e*FgAgq*Kjf#o+=lGK92
     A10ckQ4  C2019 03 05Xj\fjDJc/QPmZrGGvp,mbSi,?9yQqj3]41anOptZB6[:]\jTh^puK92
     A10ckQ4  C2019 03 057F4t4y5)N,W.`yyA:\W*6yB-uIcji?je$TTXj],Pno6nn2bPiFAiK92
     A10ckQ4  C2019 03 05(eRbP1=*i-AO76DM^l9Fw)lL5j(ERd0^L;oiy^PA4g12oI%.ok;tK92
     A10ckQ4 |C2019 03 069w*xIyGmx,Credacted;ste*,4Sevgh;_I5G\/:Ym8\l`OjFMd@l807
     A10ckQ4 |C2019 03 0623D*O*S+i'EN89@RheRo)La+RA;xxNfBX;f31/o12C#KdUm)-c2Y807
     A10ckQ4 |C2019 03 06xaPtsE!_2fo'Q[KT`icSrJp^]O/IOBg']q!1pVp(C?0NT5):$FHP807
     A10ckQ4  C2019 03 06WvtD#1oYBe5mHXf2aAGj5%j]/aVQ#(MTr14Aj0-#U8jAy1hCFG4^W86
     A10ckQ4  C2019 03 06isKFk]42'DsaH(8IS#kQ#8?aHnU/:My3REXiYDqWX%2qJ@NoqR.6W86
     A10ckQ4  C2019 03 06*s1\iLQhw.,/h`B_db4Z3@h#gx-jr,tkq1/;]:)ZIii7OeP:'tn8W86
     A10ckQ4  C2019 03 06geyX\0BQG\Z[_I$PyD'mKEg@^]kQpB5AwL+?#RU^g;alk`6rS;rtW86
     A10ckQ4 KC2019 03 06QJ'Al$mQwJ^SbKHJq90af#8llHJMP3%:FsmxJq\WZa%*Ysn@_fww474
     A10ckQ4 KC2019 03 06pP)dP*7w\bor?OYyYlr'gWnclickd.Mba0ZjZdsx;W689Ra1K6EJ474
     A10ckQ4 KC2019 03 06yC;L+6?lJ*@yw87kDSVpi!@mm=xqpw:fIh9?[cIU?RXnwVGTLj/G474
     A10ckQ4 KC2019 03 06XB[BCtbX7e3Wh?i\=y]KLMZM177Fe%%-Z:*#il5Z1HkSg4i*4L/`474
     A10ckQ4 KC2019 03 07eF]D-=_7tN]/bI1TyhF]Lm7OEr-1rkUYbnq7v._W294e[ZH^`og,Q62
     A10ckQ4 KC2019 03 07(-dEU5\RC\7!n*5YeI\#/Q$P8b=JyHU\Us'e.==+y.,Hlu[WDq5.Q62
     A10ckQ4 KC2019 03 07eT$tj3GKxUhoaB#GjoC%'AQpOTchoC4L!c=i0hg@W7[Sn(w%EGSoQ62
     A10ckQ4 KC2019 03 07bEc.?Rbt8s1sLYIw[%v(3k%@ICQy+vI*uU]);0nh\Nj_KeH.x9grQ62
     A10ckQ4 1C2019 03 07rs]nO`+XUMCR!hlLnWN/hD[+U_!%^NyBBN\'`7w34*hvop-CM1qwQ62
     A10ckQ4 1C2019 03 07^=vfy#MjU:$_][5RQBuX^a)51cL]IG]-dYt=7!-F;e_xFt*RdTAnQ62
     A10ckQ4 1C2019 03 07MhZ-bwxc^DXJ)1p#;sug'[$Ilt_Mj2;KsWHqhereta;R1x=[U38NQ62
     A10ckQ4  C2019 03 08N,b33,yNWM_ZDYA:f,l)AHYv%^`*RN29jyLvxUTK:hJtc`o0CjX`J04
     A10ckQ4  C2019 03 08;w5Tg4Z=f5K8P9J40KDSpWmt@f\iiQf$_-8@$%UPq+ig/F!sKy'uJ04
     A10ckQ4  C2019 03 08?*]_cwlU=q4L!+2DLAj';p'Bk7p;heG-p^m3[9hRd#%ebk0ifTp'J04
     A10ckQ4 |C2019 03 131Wm2d=p1PRK?*ivcU^T?MAsxxuZHdb3AUE`s;q#GvB,frou1$:8y807
     A10ckQ4 |C2019 03 13APQTLaSf4I77p44T,LO=PCVOdl**XtKc%Z5f3U6l8-Zc425=P?:`807
     A10ckQ4 |C2019 03 13'4N,n=M\r'rd?YEyw322QRkJ.-Ys4H!uHRjO%UI8TH5A4HLPTrRT807
     A10ckQ4 KC2019 03 13$6%tT'MEW,TZDb\4)q60Gj(TxJ;nOE*e$%t,,s=lMwji3$L*:\,^I47
     A10ckQ4 KC2019 03 13o**forJ/YDo?=21D/!gBZ9'Nv3g`sXON=EXHy\1XZwwlbuUcbQwXI47
     A10ckQ4  C2019 03 13qhF4g%6f;!DB[usM]I\14xgl$?8=20hTWA6m-QH+M*G1=Jn=[(o#W87
     A10ckQ4  C2019 03 13QXb.5)x\j)*uW4!Xr(nj=P_t$3qEWYv6B^%%\aJeEEvZ!T4s6(c.W87
     A10ckQ4  C2019 03 13'GYW]U;4QW^q#^m7_K2lSveS)!C\)jo:(JVD9-Vw$Y5Lpt(A-tN]W87
     A10ckQ4  C2019 03 13:wW08_4H^MUn%4M::wiBPpFgk_WISj+!(C;kSDGIht=\q`$i6u5#W87
     A10ckQ4 |C2019 03 16fZDcu`.N*/u-QI%4telcVAR3bH`aZ(:Fki`qEcFRno1(iQO,ap^t807
     A10ckQ4 |C2019 03 16NbKtS;5-fZJ3f?\x!OP26!Kd3ia`Irh1w=?8RLY2wlxp(vq.%uo#807
     A10ckQ4 |C2019 03 219Gs$D6C7hppGR=DOhS.j($G(88q3vd4oiX_2oM\?'][ZTcC3K3oO807
     A10ckQ4 |C2019 03 21I3B?VUXBJ,YDg%!q_:Lj'usr;iu#m.Ff!D`%PsIr6)MaBlUI6\D/807
     A10ckQ4 |C2019 03 215(!r)F2bP,fBoP]kv8:2N_u'VT$H6mIN!o`=ylexplanation)Vh807

Station data:
(474) Mount John Observatory, Lake Tekapo  (S43.987388 E170.464960)  New
   Zealand.  Observers A. C. Gilmore, P. M. Kilmartin. Measurer P. M.
   Kilmartin. 1.0-m f/7.7 reflector + CCD.
(807) Cerro Tololo Observatory, La Serena  (S30.169136 W70.805900)  Chile.
   1.5-m Ritchey-Chrétien.
(I47) Pierre Auger Observatory, Malargüe  (S35.495442 W69.449700)  Argentina.
(J04) ESA Optical Ground Station, Tenerife  (N28.300924 W16.511830)  Canary
   Islands (Spain).  Observer D. Abreu. Measurers M. Micheli, D. Koschny, E.
   Schwab, M. Busch, A. Knöfel. 1.0-m f/4.4 reflector + CCD.
(K92) Sutherland-LCO B  (S32.380542 E20.810040)  South Africa.  Observers T.
   Lister, S. Greenstreet, E. Gomez. Measurer S. Greenstreet. 1.0-m f/6.3
   Cassegrain + CCD.
(Q62) iTelescope Observatory, Siding Spring  (S31.273289 E149.064420)
   Australia/NSW. 0.50-m f/6.8 astrograph + CCD + focal reducer, 0.70-m f/6.6
   astrograph + CCD.
(T08) ATLAS-MLO, Mauna Loa  (N19.535772 W155.576400)  US/Hawaii.
(W86) Cerro Tololo-LCO B  (S30.167328 W70.804670)  Chile.  Observer T. Lister.
    1.0-m f/8 Ritchey-Chrétien + CCD.
(W87) Cerro Tololo-LCO C  (S30.167456 W70.804680)  Chile.

Orbital elements:  A10ckQ4
   Perihelion 2023 Nov 13.512812 +/- 5.02 TT = 12:18:27 (JD 2460262.012812)
Epoch 2019 Mar 21.0 TT = JDT 2458563.5                        AutoNEOCP
M 359.99399764 +/- 0.47             (J2000 ecliptic)
n   0.00000353 +/-                  Peri.  280.67763 +/- 1.5
a4268.74975 +/-                     Node   347.00545 +/- 0.25
e   0.9975861 +/- 0.0337            Incl.   84.03902 +/- 0.28
P 278901                   H  8.1   G  0.15
q 10.3042667 +/- 0.224    Q 8527.19524 +/- 9147
From 43 observations 2019 Mar. 5-21; mean residual 0".33
Residuals in arcseconds: 
190305 T08  .07+  1.0-    190306 474  .23-  .22+    190313 807  .52+  .07-    
190305 T08  1.3+  .36-    190306 474  .39-  .13+    190313 807  .13+  .08-    
190305 T08  .19-  .87+    190306 474  .20-  .15-    190313 I47  .22-  .13-    
190305 T08  .09-  .77+    190306 474  .24+  .77+    190313 I47  .26+  .02-    
190305 K92  .10+  .32-    190307 Q62  .53-  .62-    190313 W87  .17-  .03+    
190305 K92  .01-  .26-    190307 Q62  .09-  .16+    190313 W87  .10-  .01+    
190305 K92  .11-  .19-    190307 Q62  .06-  .06-    190313 W87  .15-  .01-    
190305 K92  .10-  .13-    190307 Q62  .03+  .02+    190313 W87  .08-  .02-    
190306 807  .13+  .27+    190307 Q62  .12+  .02-    190316 807  .13+  .18+    
190306 807  .18-  .16+    190307 Q62  .41-  .30+    190316 807  .26-  .18+    
190306 807  .08-  .25+    190307 Q62  .59-  .53+    190321 807  .10+  .20+    
190306 W86  .15+  .12-    190308 J04  .01-  .06-    190321 807  .02+  .03-    
190306 W86  .11+  .48-    190308 J04  .46+  .11+    190321 807  .14-  .24-    
190306 W86  .18-  .15-    190308 J04  .11+  .01+    
190306 W86  .10-  .41-    190313 807  .09+  .25-    

Ephemerides (geocentric):
Date (UTC) HH   RA              Dec         delta   r     elong  mag " sig PA
---- -- -- --  -------------   -----------  ------ ------ -----  --- ---- ---
2019 03 21 19  10 07 45.655   -36 52 16.97  12.859 13.580 134.8 19.6 .217  11
2019 03 21 20  10 07 44.748   -36 52 13.98  12.859 13.580 134.8 19.6 .220  11
2019 03 21 21  10 07 43.841   -36 52 10.99  12.859 13.580 134.8 19.6 .223  11
2019 03 21 22  10 07 42.935   -36 52 07.99  12.859 13.579 134.8 19.6 .225  11
2019 03 21 23  10 07 42.029   -36 52 04.99  12.859 13.579 134.8 19.6 .228  11
2019 03 22 00  10 07 41.123   -36 52 01.99  12.859 13.579 134.8 19.6 .231  11
2019 03 22 01  10 07 40.217   -36 51 58.98  12.859 13.579 134.8 19.6 .234  11
2019 03 22 02  10 07 39.312   -36 51 55.96  12.859 13.579 134.8 19.6 .236  11
2019 03 22 03  10 07 38.407   -36 51 52.94  12.859 13.579 134.7 19.6 .239  11
2019 03 22 04  10 07 37.503   -36 51 49.91  12.859 13.579 134.7 19.6 .242  11
2019 03 22 05  10 07 36.599   -36 51 46.88  12.859 13.578 134.7 19.6 .245  11
2019 03 22 06  10 07 35.695   -36 51 43.85  12.859 13.578 134.7 19.6 .248  11
2019 03 22 07  10 07 34.792   -36 51 40.81  12.859 13.578 134.7 19.6 .251  11
2019 03 22 08  10 07 33.889   -36 51 37.77  12.859 13.578 134.7 19.6 .254  11
2019 03 22 09  10 07 32.986   -36 51 34.72  12.859 13.578 134.7 19.6 .256  11
2019 03 22 10  10 07 32.084   -36 51 31.66  12.859 13.578 134.7 19.6 .259  11
2019 03 22 11  10 07 31.182   -36 51 28.61  12.859 13.578 134.7 19.6 .262  11
2019 03 22 12  10 07 30.280   -36 51 25.54  12.859 13.577 134.7 19.6 .265  11
2019 03 22 13  10 07 29.379   -36 51 22.47  12.859 13.577 134.7 19.6 .268  11
2019 03 22 14  10 07 28.478   -36 51 19.40  12.858 13.577 134.7 19.6 .271  11
2019 03 22 15  10 07 27.577   -36 51 16.33  12.858 13.577 134.6 19.6 .274  11
2019 03 22 16  10 07 26.677   -36 51 13.24  12.858 13.577 134.6 19.6 .277  11
2019 03 22 17  10 07 25.777   -36 51 10.16  12.858 13.577 134.6 19.6 .280  11
2019 03 22 18  10 07 24.878   -36 51 07.07  12.858 13.577 134.6 19.6 .283  11
2019 03 22 19  10 07 23.979   -36 51 03.97  12.858 13.577 134.6 19.6 .286  11
2019 03 22 20  10 07 23.080   -36 51 00.87  12.858 13.576 134.6 19.6 .289  11
2019 03 22 21  10 07 22.181   -36 50 57.76  12.858 13.576 134.6 19.6 .292  11
2019 03 22 22  10 07 21.283   -36 50 54.65  12.858 13.576 134.6 19.6 .295  11
2019 03 22 23  10 07 20.385   -36 50 51.54  12.858 13.576 134.6 19.6 .298  12
2019 03 23 00  10 07 19.488   -36 50 48.42  12.858 13.576 134.6 19.6 .301  12
2019 03 23 01  10 07 18.591   -36 50 45.30  12.858 13.576 134.6 19.6 .304  12
2019 03 23 02  10 07 17.694   -36 50 42.17  12.858 13.576 134.5 19.6 .307  12
2019 03 23 03  10 07 16.798   -36 50 39.03  12.858 13.575 134.5 19.6 .310  12
2019 03 23 04  10 07 15.902   -36 50 35.90  12.858 13.575 134.5 19.6 .313  12
2019 03 23 05  10 07 15.006   -36 50 32.75  12.858 13.575 134.5 19.6 .316  12
2019 03 23 06  10 07 14.111   -36 50 29.61  12.858 13.575 134.5 19.6 .320  12
2019 03 23 07  10 07 13.216   -36 50 26.46  12.858 13.575 134.5 19.6 .323  12
2019 03 23 08  10 07 12.321   -36 50 23.30  12.858 13.575 134.5 19.6 .326  12
2019 03 23 09  10 07 11.427   -36 50 20.14  12.858 13.575 134.5 19.6 .329  12
2019 03 23 10  10 07 10.533   -36 50 16.97  12.858 13.575 134.5 19.6 .332  12
2019 03 23 11  10 07 09.640   -36 50 13.80  12.858 13.574 134.5 19.6 .335  12
2019 03 23 12  10 07 08.747   -36 50 10.63  12.858 13.574 134.5 19.6 .339  12
2019 03 23 13  10 07 07.854   -36 50 07.45  12.858 13.574 134.4 19.6 .342  12
2019 03 23 14  10 07 06.962   -36 50 04.26  12.858 13.574 134.4 19.6 .345  12
2019 03 23 15  10 07 06.070   -36 50 01.08  12.858 13.574 134.4 19.6 .348  12
2019 03 23 16  10 07 05.178   -36 49 57.88  12.858 13.574 134.4 19.6 .351  12
2019 03 23 17  10 07 04.287   -36 49 54.68  12.858 13.574 134.4 19.6 .355  12
2019 03 23 18  10 07 03.396   -36 49 51.48  12.857 13.573 134.4 19.6 .358  12